Weather History for Orange, MA

Change the Weather History Date:

Tuesday, January 29, 2013

  Actual Average Record
Temperature  
Mean Temperature 28 °F -  
Max Temperature 33 °F 29 °F 48 °F (2002)
Min Temperature 24 °F 9 °F -11 °F (2005)
Degree Days  
Heating Degree Days 36    
Moisture  
Dew Point 25 °F    
Average Humidity 90    
Maximum Humidity 100    
Minimum Humidity 82    
Precipitation  
Precipitation 0.13 in - - ()
Sea Level Pressure  
Sea Level Pressure 30.12 in    
Wind  
Wind Speed 2 mph (North)    
Max Wind Speed 5 mph    
Max Gust Speed -    
Visibility 7 miles    
Events Rain    
Averages and records for this station are not official NWS values.
T = Trace of Precipitation, MM = Missing Value Source: NWS Daily Summary

Daily Weather History Graph

Daily Weather History Graph

Search for Another Location

Airport:

Trip Planner

Search our weather history database for the weather conditions in past years. The results will help you decide how hot, cold, wet, or windy it might be!

Date:

Astronomy

Jan. 29, 2013 Rise Set
Actual Time 7:06 AM EST 4:59 PM EST
Civil Twilight 6:35 AM EST 5:29 PM EST
Nautical Twilight 6:02 AM EST 6:03 PM EST
Astronomical Twilight 5:28 AM EST 6:36 PM EST
Moon 7:57 PM EST (1/29) 7:57 AM EST (1/29)
Length of Visible Light 10h 53m
Length of Day
9h 53m
Waning Gibbous, 94% of the Moon is Illuminated
Jan 29
Waning Gibbous
Feb 3
Last Quarter
Feb 10
New
Feb 17
First Quarter
Feb 25
Full

Hourly Weather History & Observations

Time (EST) Temp. Windchill Dew Point Humidity Pressure Visibility Wind Dir Wind Speed Gust Speed Precip Events Conditions
12:52 AM 25.0 °F 20.7 °F 23.0 °F 92% 30.03 in 2.5 mi North 3.5 mph - N/A   Overcast
1:36 AM 24.8 °F - 24.8 °F 100% 30.00 in 2.5 mi Calm Calm - N/A   Overcast
1:49 AM 24.8 °F 20.5 °F 23.0 °F 93% 30.01 in 3.0 mi North 3.5 mph - N/A   Overcast
1:50 AM 25.0 °F 20.7 °F 23.0 °F 92% 30.04 in 3.0 mi North 3.5 mph - N/A   Overcast
2:52 AM 25.0 °F 20.7 °F 21.9 °F 88% 30.05 in 4.0 mi North 3.5 mph - N/A   Overcast
3:18 AM 24.8 °F 19.1 °F 21.2 °F 86% 30.03 in 5.0 mi North 4.6 mph - N/A   Overcast
3:52 AM 24.1 °F 18.2 °F 21.9 °F 91% 30.07 in 6.0 mi North 4.6 mph - N/A   Overcast
4:52 AM 24.1 °F 18.2 °F 21.9 °F 91% 30.08 in 10.0 mi NNW 4.6 mph - N/A   Overcast
5:06 AM 24.8 °F 20.5 °F 21.2 °F 86% 30.05 in 10.0 mi North 3.5 mph - N/A   Overcast
5:18 AM 24.8 °F 20.5 °F 21.2 °F 86% 30.06 in 10.0 mi North 3.5 mph - N/A   Overcast
5:52 AM 24.1 °F - 21.9 °F 91% 30.10 in 10.0 mi Calm Calm - N/A   Overcast
6:27 AM 24.8 °F - 21.2 °F 86% 30.09 in 10.0 mi Calm Calm - N/A   Overcast
6:52 AM 25.0 °F - 21.9 °F 88% 30.12 in 9.0 mi Calm Calm - N/A   Overcast
7:52 AM 24.1 °F - 21.9 °F 91% 30.14 in 7.0 mi Calm Calm - N/A   Mostly Cloudy
7:59 AM 24.8 °F - 21.2 °F 86% 30.12 in 6.0 mi Calm Calm - N/A   Overcast
8:52 AM 25.0 °F - 21.9 °F 88% 30.16 in 10.0 mi Calm Calm - N/A   Overcast
9:05 AM 26.6 °F - 23.0 °F 86% 30.13 in 9.0 mi Calm Calm - N/A   Overcast
9:52 AM 27.0 °F - 23.0 °F 85% 30.17 in 10.0 mi Calm Calm - N/A   Overcast
10:52 AM 28.0 °F - 24.1 °F 85% 30.18 in 10.0 mi Calm Calm - N/A   Overcast
11:52 AM 30.0 °F - 25.0 °F 82% 30.17 in 10.0 mi Calm Calm - N/A   Overcast
12:05 PM 30.2 °F - 26.6 °F 86% 30.15 in 10.0 mi Calm Calm - N/A   Overcast
12:52 PM 30.9 °F - 27.0 °F 85% 30.15 in 10.0 mi Calm Calm - N/A   Overcast
1:52 PM 32.0 °F - 27.0 °F 82% 30.14 in 10.0 mi Calm Calm - N/A   Overcast
2:52 PM 32.0 °F - 28.0 °F 85% 30.15 in 9.0 mi Calm Calm - N/A   Overcast
3:52 PM 32.0 °F - 28.9 °F 88% 30.16 in 8.0 mi Calm Calm - N/A   Overcast
4:52 PM 32.0 °F - 28.9 °F 88% 30.15 in 6.0 mi Calm Calm - N/A   Overcast
5:52 PM 32.0 °F - 30.0 °F 92% 30.17 in 6.0 mi Calm Calm - N/A   Overcast
6:52 PM 30.9 °F - 30.0 °F 96% 30.15 in 5.0 mi Calm Calm - N/A   Overcast
7:52 PM 30.9 °F - 30.0 °F 96% 30.17 in 4.0 mi Calm Calm - 0.00 in   Overcast
8:01 PM 32.0 °F - 30.2 °F 93% 30.15 in 2.5 mi Calm Calm - 0.00 in   Overcast
8:22 PM 32.0 °F - 30.2 °F 93% 30.16 in 4.0 mi Calm Calm - 0.01 in   Overcast
8:52 PM 33.1 °F 30.0 °F 30.9 °F 92% 30.16 in 4.0 mi South 3.5 mph - 0.03 in   Overcast
9:52 PM 33.1 °F 30.0 °F 32.0 °F 96% 30.14 in 6.0 mi South 3.5 mph - 0.05 in Rain Light Rain
10:52 PM 33.1 °F - 32.0 °F 96% 30.13 in 5.0 mi Calm Calm - 0.00 in Rain Light Rain
11:52 PM 33.1 °F - 32.0 °F 96% 30.13 in 3.0 mi Calm Calm - 0.05 in Rain Rain